Change the Weather History Date:

Sunday, August 18, 2013

  Actual Average Record
Temperature  
Mean Temperature 70 °F -  
Max Temperature 80 °F 82 °F 95 °F (1972)
Min Temperature 60 °F 58 °F 36 °F (1985)
Cooling Degree Days 5    
Growing Degree Days 20 (Base 50)    
Moisture  
Dew Point 58 °F    
Average Humidity 67    
Maximum Humidity 83    
Minimum Humidity 45    
Precipitation  
Precipitation 0.00 in - - ()
Sea Level Pressure  
Sea Level Pressure 30.12 in    
Wind  
Wind Speed 7 mph (SSE)    
Max Wind Speed 12 mph    
Max Gust Speed 21 mph    
Visibility 10 miles    
Events      
Averages and records for this station are not official NWS values.
T = Trace of Precipitation, MM = Missing Value Source: NWS Daily Summary

Daily Weather History Graph

Daily Weather History Graph

Search for Another Location

Airport or City:

Trip Planner

Search our weather history database for the weather conditions in past years. The results will help you decide how hot, cold, wet, or windy it might be!

Date:

Astronomy

Aug. 18, 2013 Rise Set
Actual Time 6:20 AM CDT 8:12 PM CDT
Civil Twilight 5:49 AM CDT 8:43 PM CDT
Nautical Twilight 5:11 AM CDT 9:21 PM CDT
Astronomical Twilight 4:30 AM CDT 10:02 PM CDT
Moon 6:20 PM CDT (8/18) 3:27 AM CDT (8/18)
Length of Visible Light 14h 53m
Length of Day
13h 52m
Waxing Gibbous, 92% of the Moon is Illuminated
Aug 18
Waxing Gibbous
Aug 20
Full
Aug 28
Last Quarter
Sep 5
New
Sep 12
First Quarter

Hourly Weather History & Observations

Time (CDT) Temp. Heat Index Dew Point Humidity Pressure Visibility Wind Dir Wind Speed Gust Speed Precip Events Conditions
12:14 AM 64.4 °F - 55.4 °F 73% 30.15 in 10.0 mi SSE 5.8 mph - N/A   Clear
12:34 AM 62.6 °F - 55.4 °F 77% 30.15 in 10.0 mi SSE 6.9 mph - N/A   Clear
12:55 AM 62.6 °F - 55.4 °F 77% 30.16 in 10.0 mi SSE 8.1 mph - N/A   Clear
1:15 AM 62.6 °F - 55.4 °F 77% 30.16 in 10.0 mi SSE 6.9 mph - N/A   Clear
1:34 AM 62.6 °F - 55.4 °F 77% 30.16 in 10.0 mi SSE 6.9 mph - N/A   Clear
1:41 AM 62.6 °F - 55.4 °F 77% 30.16 in 10.0 mi SSE 8.1 mph - N/A   Clear
2:15 AM 62.6 °F - 55.4 °F 77% 30.16 in 10.0 mi SSE 8.1 mph - N/A   Clear
2:36 AM 62.6 °F - 55.4 °F 77% 30.16 in 10.0 mi South 5.8 mph - N/A   Clear
2:58 AM 62.6 °F - 55.4 °F 77% 30.15 in 10.0 mi SSE 6.9 mph - N/A   Clear
3:16 AM 60.8 °F - 55.4 °F 82% 30.15 in 10.0 mi SSE 6.9 mph - N/A   Clear
3:36 AM 60.8 °F - 55.4 °F 82% 30.16 in 10.0 mi SSE 6.9 mph - N/A   Clear
3:54 AM 60.8 °F - 55.4 °F 82% 30.15 in 10.0 mi SSE 8.1 mph - N/A   Clear
4:14 AM 62.6 °F - 55.4 °F 77% 30.16 in 10.0 mi SSE 6.9 mph - N/A   Clear
4:38 AM 60.8 °F - 55.4 °F 82% 30.16 in 10.0 mi SSE 5.8 mph - N/A   Clear
4:54 AM 60.8 °F - 55.4 °F 82% 30.16 in 10.0 mi SSE 8.1 mph - N/A   Clear
5:14 AM 60.8 °F - 55.4 °F 82% 30.16 in 10.0 mi SSE 6.9 mph - N/A   Clear
5:34 AM 60.8 °F - 55.4 °F 82% 30.16 in 10.0 mi SSE 8.1 mph - N/A   Clear
5:54 AM 60.8 °F - 55.4 °F 82% 30.17 in 10.0 mi SSE 5.8 mph - N/A   Clear
6:14 AM 60.8 °F - 55.4 °F 82% 30.17 in 10.0 mi SSE 5.8 mph - N/A   Clear
6:34 AM 60.8 °F - 55.4 °F 82% 30.17 in 10.0 mi SSE 6.9 mph - N/A   Clear
6:56 AM 60.8 °F - 55.4 °F 82% 30.17 in 10.0 mi SSE 8.1 mph - N/A   Clear
7:14 AM 62.6 °F - 55.4 °F 77% 30.17 in 10.0 mi SSE 8.1 mph - N/A   Clear
7:35 AM 62.6 °F - 57.2 °F 82% 30.17 in 10.0 mi SSE 8.1 mph - N/A   Clear
7:54 AM 64.4 °F - 57.2 °F 77% 30.17 in 10.0 mi SSE 8.1 mph - N/A   Clear
8:14 AM 66.2 °F - 57.2 °F 73% 30.17 in 10.0 mi SSE 6.9 mph - N/A   Clear
8:35 AM 66.2 °F - 57.2 °F 73% 30.17 in 10.0 mi South 8.1 mph - N/A   Clear
8:55 AM 68.0 °F - 57.2 °F 68% 30.17 in 10.0 mi South 9.2 mph - N/A   Clear
9:14 AM 69.8 °F - 59.0 °F 68% 30.17 in 10.0 mi South 8.1 mph - N/A   Clear
9:34 AM 71.6 °F - 59.0 °F 64% 30.17 in 10.0 mi South 6.9 mph - N/A   Clear
9:54 AM 71.6 °F - 60.8 °F 69% 30.17 in 10.0 mi South 9.2 mph - N/A   Clear
10:14 AM 73.4 °F - 60.8 °F 65% 30.17 in 10.0 mi SSE 5.8 mph - N/A   Clear
10:34 AM 75.2 °F - 60.8 °F 61% 30.17 in 10.0 mi South 8.1 mph - N/A   Clear
10:54 AM 75.2 °F - 60.8 °F 61% 30.16 in 10.0 mi South 8.1 mph - N/A   Clear
11:14 AM 77.0 °F - 60.8 °F 57% 30.16 in 10.0 mi South 8.1 mph - N/A   Clear
11:34 AM 78.8 °F - 60.8 °F 54% 30.16 in 10.0 mi South 8.1 mph - N/A   Clear
11:54 AM 78.8 °F - 60.8 °F 54% 30.15 in 10.0 mi SSE 6.9 mph 16.1 mph N/A   Scattered Clouds
12:14 PM 78.8 °F - 59.0 °F 51% 30.14 in 10.0 mi South 8.1 mph - N/A   Scattered Clouds
12:34 PM 80.6 °F 81.5 °F 60.8 °F 51% 30.14 in 10.0 mi SSE 11.5 mph 16.1 mph N/A   Clear
12:54 PM 78.8 °F - 59.0 °F 51% 30.13 in 10.0 mi South 10.4 mph - N/A   Clear
1:14 PM 78.8 °F - 57.2 °F 47% 30.13 in 10.0 mi SSE 8.1 mph 18.4 mph N/A   Clear
1:34 PM 78.8 °F - 57.2 °F 47% 30.12 in 10.0 mi SSW 8.1 mph - N/A   Scattered Clouds
1:54 PM 80.6 °F 80.8 °F 57.2 °F 45% 30.10 in 10.0 mi South 10.4 mph 19.6 mph N/A   Scattered Clouds
2:14 PM 80.6 °F 80.8 °F 57.2 °F 45% 30.10 in 10.0 mi SSE 10.4 mph 16.1 mph N/A   Clear
2:34 PM 80.6 °F 80.8 °F 57.2 °F 45% 30.09 in 10.0 mi South 10.4 mph 16.1 mph N/A   Clear
2:54 PM 80.6 °F 80.8 °F 57.2 °F 45% 30.10 in 10.0 mi SSE 9.2 mph - N/A   Clear
3:14 PM 80.6 °F 80.8 °F 57.2 °F 45% 30.10 in 10.0 mi SSE 11.5 mph 16.1 mph N/A   Clear
3:34 PM 80.6 °F 80.8 °F 57.2 °F 45% 30.11 in 10.0 mi South 10.4 mph 20.7 mph N/A   Clear
3:54 PM 78.8 °F - 57.2 °F 47% 30.11 in 10.0 mi South 5.8 mph - N/A   Scattered Clouds
4:14 PM 80.6 °F 80.8 °F 57.2 °F 45% 30.10 in 10.0 mi SW 8.1 mph - N/A   Scattered Clouds
4:34 PM 78.8 °F - 57.2 °F 47% 30.10 in 10.0 mi SSW 6.9 mph - N/A   Scattered Clouds
4:54 PM 80.6 °F 81.1 °F 59.0 °F 48% 30.09 in 10.0 mi SSW 9.2 mph - N/A   Scattered Clouds
5:14 PM 80.6 °F 80.8 °F 57.2 °F 45% 30.08 in 10.0 mi SSW 6.9 mph - N/A   Scattered Clouds
5:34 PM 78.8 °F - 57.2 °F 47% 30.08 in 10.0 mi SSW 8.1 mph - N/A   Clear
5:54 PM 78.8 °F - 57.2 °F 47% 30.07 in 10.0 mi South 8.1 mph - N/A   Clear
6:14 PM 78.8 °F - 59.0 °F 51% 30.07 in 10.0 mi South 6.9 mph - N/A   Clear
6:34 PM 78.8 °F - 59.0 °F 51% 30.07 in 10.0 mi South 6.9 mph - N/A   Scattered Clouds
6:54 PM 77.0 °F - 59.0 °F 54% 30.07 in 10.0 mi South 6.9 mph - N/A   Scattered Clouds
7:14 PM 75.2 °F - 60.8 °F 61% 30.07 in 10.0 mi South 5.8 mph - N/A   Scattered Clouds
7:34 PM 73.4 °F - 60.8 °F 65% 30.07 in 10.0 mi South 3.5 mph - N/A   Clear
7:54 PM 71.6 °F - 60.8 °F 69% 30.07 in 10.0 mi South 3.5 mph - N/A   Clear
8:14 PM 69.8 °F - 60.8 °F 73% 30.07 in 10.0 mi Calm Calm - N/A   Clear
8:34 PM 69.8 °F - 60.8 °F 73% 30.06 in 10.0 mi South 5.8 mph - N/A   Clear
8:54 PM 69.8 °F - 60.8 °F 73% 30.06 in 10.0 mi SSE 5.8 mph - N/A   Clear
9:14 PM 69.8 °F - 60.8 °F 73% 30.06 in 10.0 mi South 6.9 mph - N/A   Clear
9:34 PM 66.2 °F - 60.8 °F 83% 30.06 in 10.0 mi SSE 6.9 mph - N/A   Clear
9:54 PM 66.2 °F - 60.8 °F 83% 30.06 in 10.0 mi SSE 8.1 mph - N/A   Clear
10:14 PM 66.2 °F - 60.8 °F 83% 30.05 in 10.0 mi SSE 8.1 mph - N/A   Clear
10:34 PM 68.0 °F - 60.8 °F 78% 30.05 in 10.0 mi SSE 8.1 mph - N/A   Clear
10:54 PM 68.0 °F - 60.8 °F 78% 30.05 in 10.0 mi SSE 8.1 mph - N/A   Clear
11:14 PM 68.0 °F - 60.8 °F 78% 30.05 in 10.0 mi SSE 10.4 mph - N/A   Clear
11:34 PM 66.2 °F - 60.8 °F 83% 30.05 in 10.0 mi SSE 9.2 mph - N/A   Clear
11:54 PM 66.2 °F - 60.8 °F 83% 30.06 in 10.0 mi SSE 8.1 mph - N/A   Clear